Showing default

METEOR 2-17, 18820

Orbit data source: Space-Track

METEOR 2-17, 18820 is a Commonwealth of Independent States-origin payload satellite in LEO that was launched on Sat, 30 Jan 1988 UTC via a TSIKLON-3 launch vehicle from the Plesetsk Missile And Space Complex (PKMTR). Payload-class satellites include a variety of spacecraft equipped with specific instruments for various scientific and technological missions. These include communications satellites like Starlink; space stations such as the ISS; scientific satellites like the Hubble; Earth observation satellites from companies like Planet Labs, Umbra, and HawkEye 360; GPS; miniature CubeSats for education and research; and military/defense satellites.

Loading next visibility...
Identifier
18820, 1988-005A
Orbit
LEO
Country
Flag of CISCIS
Related business
Manufacturer
VNIIEM
Mission
Civil Weather
Bus & Motor
METEOR-2, Unknown motor
Mass
~1,500 kg wet, ~1,500 kg dry
Launch date (UTC)
1988-01-30 (38 years ago)
Launch vehicle
TSIKLON-3
Launch site
Plesetsk Missile And Space Complex (PKMTR)
Object type
Payload
Rocket body
Debris
Shape & HBR
Cyl + 2 Pan, 2.3 m
Radar Cross Section
5.718 m², Large (>1 m²)

Expand to show TLE details & history
Last TLE update: 14 hours ago

TLE from 14 hours ago
0 METEOR 2-17
1 18820U 88005A   25351.88224513  .00000083  00000-0  59601-4 0  9995
2 18820  82.5425 108.1368 0015633 226.6966 283.1694 13.85643611915072
Epoch: 2025-12-17T21:10Z
TLE epoch observation values (Epoch: 2025-12-17T21:10:25.979Z)
Latitude
30.0762°
Longitude
-120.542°
Altitude
945.111 km
Speed
7.383 km/s
True Right ascension
18h 55m 14s
True Declination
29° 55' 52"
Sunlit
Object was in daylight at epoch
Visualization orbit readout
Latitude
Unknown
Longitude
Unknown
Altitude
Unknown
Speed
Unknown
Apparent Right ascension
Unknown
Apparent Declination
Unknown
Sunlit
N/A
Visualization observer readout
Local Sidereal Time
10:02:27
Azimuth
Unknown
Elevation
Unknown
Doppler factor
Unknown
Orbital elements
Apogee altitude
952.53 km
Perigee altitude
929.645 km
Semi-major axis
7,319.224 km
Eccentricity
0.00156
Inclination
82.5425°
RAAN
108.1368°
Arg. of periapsis
226.6966°
True anomaly
282.99489°
Mean anomaly
283.1694°
Eccentric anomaly
283.08215°
Mean motion
3.46614 °/min
Orbital period
103.86 mins
BSTAR
0.000059601
Loading maneuver chart data...
Computing Atmospheric mass density...
Loading historical data...
Loading historical data...
Loading historical data...
Loading historical data...
Loading historical data...
Loading historical data...
Loading historical data...

Documentation

Showing up to 5 results
|